ATLAS 5 CENTAUR R/B

基本信息
目录编号:
29056
目录名称:
ATLAS 5 CENTAUR R/B
国际标识:
2006-012B
轨道中心:
EARTH
物体状态:
在轨
发射日期:
2006-04-20 UTC
国别:
美国 (US)
轨道信息
数据来源: 国际轨道数据
星历时间: 2026-07-13T18:07:12+0800
半长轴: 26938.794km
偏心率: 0.545261
轨道倾角: 22.500°
近地点辐角: 285.722°
升交点赤经: 173.022°
平近点角: 292.123°
近地点: 5871.983km
远地点: 35249.331km
周期: 733.376分钟
每日圈数: 1.963521
详细信息
发射场:
AFETR
轨道高度:
MEO
数据来源:
AOE Integration Group
参考系:
TEME
时间系统:
UTC
历元类型:
SGP4
2D轨道图
3D轨道图
轨道高度分析图
轨道倾角分析图
轨道综合分析图
查看轨道综合分析图